Time,TemperatureF,DewpointF,PressureIn,WindDirection,WindDirectionDegrees,WindSpeedMPH,WindSpeedGustMPH,Humidity,HourlyPrecipIn,Conditions,Clouds,dailyrainin,SoftwareType,DateUTC
2013-07-23 00:01:00,83.1,69.2,29.94,WSW,256,3.6,3.6,63,0.00,CLR,,0.00,WeatherDisplay:10.37,2013-07-23 05:01:00,
2013-07-23 00:06:00,83.1,69.7,29.94,SW,234,3.5,3.6,64,0.00,CLR,,0.00,WeatherDisplay:10.37,2013-07-23 05:06:00,
2013-07-23 00:11:00,83.1,69.2,29.94,SW,219,3.5,3.5,63,0.00,CLR,,0.00,WeatherDisplay:10.37,2013-07-23 05:11:00,
2013-07-23 00:17:00,83.1,69.7,29.94,SW,214,5.8,5.8,64,0.00,CLR,,0.00,WeatherDisplay:10.37,2013-07-23 05:17:00,
2013-07-23 00:22:00,83.1,69.7,29.94,SW,231,5.8,5.8,64,0.00,CLR,,0.00,WeatherDisplay:10.37,2013-07-23 05:22:00,
2013-07-23 00:27:00,82.9,70.0,29.94,SSW,199,3.5,3.5,65,0.00,CLR,,0.00,WeatherDisplay:10.37,2013-07-23 05:27:00,
2013-07-23 00:32:00,82.9,70.0,29.94,SW,214,4.5,4.5,65,0.00,CLR,,0.00,WeatherDisplay:10.37,2013-07-23 05:32:00,
2013-07-23 00:37:00,82.9,70.0,29.94,SSW,203,4.6,4.6,65,0.00,CLR,,0.00,WeatherDisplay:10.37,2013-07-23 05:37:00,
2013-07-23 00:42:00,82.9,70.0,29.94,WSW,253,5.8,5.8,65,0.00,CLR,,0.00,WeatherDisplay:10.37,2013-07-23 05:42:00,
2013-07-23 00:47:00,83.1,70.1,29.94,South,180,5.8,5.8,65,0.00,CLR,,0.00,WeatherDisplay:10.37,2013-07-23 05:47:00,
2013-07-23 00:52:00,83.3,70.3,29.94,SSW,213,5.8,5.8,65,0.00,CLR,,0.00,WeatherDisplay:10.37,2013-07-23 05:52:00,
2013-07-23 00:57:00,83.3,70.3,29.94,SW,231,5.8,5.8,65,0.00,CLR,,0.00,WeatherDisplay:10.37,2013-07-23 05:57:00,
2013-07-23 01:02:00,83.3,70.3,29.94,WSW,237,3.5,3.5,65,0.00,CLR,,0.00,WeatherDisplay:10.37,2013-07-23 06:02:00,
2013-07-23 01:07:00,83.3,70.3,29.94,WSW,250,5.8,5.8,65,0.00,CLR,,0.00,WeatherDisplay:10.37,2013-07-23 06:07:00,
2013-07-23 01:12:00,83.3,70.8,29.94,SW,216,5.8,5.8,66,0.00,CLR,,0.00,WeatherDisplay:10.37,2013-07-23 06:12:00,
2013-07-23 01:17:00,83.3,70.8,29.94,SW,224,5.8,5.8,66,0.00,CLR,,0.00,WeatherDisplay:10.37,2013-07-23 06:17:00,
2013-07-23 01:22:00,83.1,70.6,29.94,SW,228,5.8,5.8,66,0.00,CLR,,0.00,WeatherDisplay:10.37,2013-07-23 06:22:00,
2013-07-23 01:27:00,82.9,70.4,29.94,SSW,206,5.8,5.8,66,0.00,CLR,,0.00,WeatherDisplay:10.37,2013-07-23 06:27:00,
2013-07-23 01:32:00,82.9,70.4,29.94,WSW,239,5.8,5.8,66,0.00,CLR,,0.00,WeatherDisplay:10.37,2013-07-23 06:32:00,
2013-07-23 01:37:00,82.9,70.4,29.94,SW,226,5.8,5.8,66,0.00,CLR,,0.00,WeatherDisplay:10.37,2013-07-23 06:37:00,
2013-07-23 01:42:00,82.8,70.7,29.94,SW,232,8.1,8.1,67,0.00,CLR,,0.00,WeatherDisplay:10.37,2013-07-23 06:42:00,
2013-07-23 01:47:00,82.8,70.7,29.94,SSE,156,6.3,6.3,67,0.00,CLR,,0.00,WeatherDisplay:10.37,2013-07-23 06:47:00,
2013-07-23 01:52:00,82.8,70.7,29.94,SW,233,8.0,8.0,67,0.00,CLR,,0.00,WeatherDisplay:10.37,2013-07-23 06:52:00,
2013-07-23 01:57:00,82.8,70.7,29.94,SW,228,8.3,8.3,67,0.00,CLR,,0.00,WeatherDisplay:10.37,2013-07-23 06:57:00,
2013-07-23 02:02:00,82.8,70.7,29.94,SSW,206,5.8,6.3,67,0.00,CLR,,0.00,WeatherDisplay:10.37,2013-07-23 07:02:00,
2013-07-23 02:07:00,82.8,70.7,29.94,SW,226,6.3,6.3,67,0.00,CLR,,0.00,WeatherDisplay:10.37,2013-07-23 07:07:00,
2013-07-23 02:12:00,82.8,70.7,29.94,SW,228,8.1,8.1,67,0.00,CLR,,0.00,WeatherDisplay:10.37,2013-07-23 07:12:00,
2013-07-23 02:17:00,82.8,70.7,29.94,WSW,252,8.1,8.1,67,0.00,CLR,,0.00,WeatherDisplay:10.37,2013-07-23 07:17:00,
2013-07-23 02:22:00,82.6,70.5,29.94,SW,222,5.8,6.3,67,0.00,CLR,,0.00,WeatherDisplay:10.37,2013-07-23 07:22:00,
2013-07-23 02:27:00,82.6,70.5,29.94,West,267,5.8,5.8,67,0.00,CLR,,0.00,WeatherDisplay:10.37,2013-07-23 07:27:00,
2013-07-23 02:32:00,82.6,70.5,29.94,SW,236,8.7,8.7,67,0.00,CLR,,0.00,WeatherDisplay:10.37,2013-07-23 07:32:00,
2013-07-23 02:37:00,82.4,70.3,29.94,SW,228,5.8,5.8,67,0.00,CLR,,0.00,WeatherDisplay:10.37,2013-07-23 07:37:00,
2013-07-23 02:42:00,82.4,70.3,29.94,WSW,258,5.8,6.3,67,0.00,CLR,,0.00,WeatherDisplay:10.37,2013-07-23 07:42:00,
2013-07-23 02:48:00,82.2,70.6,29.94,South,173,5.8,5.8,68,0.00,CLR,,0.00,WeatherDisplay:10.37,2013-07-23 07:48:00,
2013-07-23 02:53:00,82.2,70.6,29.94,West,268,5.8,5.8,68,0.00,CLR,,0.00,WeatherDisplay:10.37,2013-07-23 07:53:00,
2013-07-23 03:07:00,81.9,70.7,29.94,SSW,192,8.1,8.1,69,0.00,CLR,,0.00,WeatherDisplay:10.37,2013-07-23 08:07:00,
2013-07-23 03:16:00,81.7,70.5,29.94,WSW,247,5.8,5.8,69,0.00,CLR,,0.00,WeatherDisplay:10.37,2013-07-23 08:16:00,
2013-07-23 03:21:00,81.5,70.3,29.94,South,182,8.1,8.1,69,0.00,CLR,,0.00,WeatherDisplay:10.37,2013-07-23 08:21:00,
2013-07-23 03:26:00,81.5,70.3,29.94,SW,234,8.0,8.0,69,0.00,CLR,,0.00,WeatherDisplay:10.37,2013-07-23 08:26:00,
2013-07-23 03:31:00,81.5,70.3,29.94,SW,216,5.8,5.8,69,0.00,CLR,,0.00,WeatherDisplay:10.37,2013-07-23 08:31:00,
2013-07-23 03:36:00,81.3,70.2,29.94,SSW,213,6.9,6.9,69,0.00,CLR,,0.00,WeatherDisplay:10.37,2013-07-23 08:36:00,
2013-07-23 03:41:00,81.3,70.2,29.94,South,191,5.8,5.8,69,0.00,CLR,,0.00,WeatherDisplay:10.37,2013-07-23 08:41:00,
2013-07-23 03:46:00,81.1,70.4,29.91,WSW,240,6.9,6.9,70,0.00,CLR,,0.00,WeatherDisplay:10.37,2013-07-23 08:46:00,
2013-07-23 03:51:00,81.1,70.4,29.91,South,183,10.1,10.1,70,0.00,CLR,,0.00,WeatherDisplay:10.37,2013-07-23 08:51:00,
2013-07-23 03:56:00,81.0,70.3,29.91,SW,221,5.8,5.8,70,0.00,CLR,,0.00,WeatherDisplay:10.37,2013-07-23 08:56:00,
2013-07-23 04:01:00,81.0,70.3,29.94,South,173,5.8,5.8,70,0.00,CLR,,0.00,WeatherDisplay:10.37,2013-07-23 09:01:00,
2013-07-23 04:06:00,81.0,70.3,29.94,WSW,247,8.1,8.1,70,0.00,CLR,,0.00,WeatherDisplay:10.37,2013-07-23 09:06:00,
2013-07-23 04:11:00,80.8,70.5,29.94,SSE,158,5.8,5.8,71,0.00,CLR,,0.00,WeatherDisplay:10.37,2013-07-23 09:11:00,
2013-07-23 04:16:00,80.8,70.5,29.94,SSW,213,8.1,8.1,71,0.00,CLR,,0.00,WeatherDisplay:10.37,2013-07-23 09:16:00,
2013-07-23 04:21:00,80.6,70.3,29.94,SW,220,6.3,6.3,71,0.00,CLR,,0.00,WeatherDisplay:10.37,2013-07-23 09:21:00,
2013-07-23 04:26:00,80.6,70.3,29.94,WSW,247,4.6,4.6,71,0.00,CLR,,0.00,WeatherDisplay:10.37,2013-07-23 09:26:00,
2013-07-23 04:31:00,80.4,70.6,29.94,SW,224,8.1,8.1,72,0.00,CLR,,0.00,WeatherDisplay:10.37,2013-07-23 09:31:00,
2013-07-23 04:36:00,80.2,70.8,29.94,SSW,213,5.8,5.8,73,0.00,CLR,,0.00,WeatherDisplay:10.37,2013-07-23 09:36:00,
2013-07-23 04:41:00,80.2,70.8,29.94,SW,216,5.8,5.8,73,0.00,CLR,,0.00,WeatherDisplay:10.37,2013-07-23 09:41:00,
2013-07-23 04:46:00,80.1,71.0,29.94,SSE,158,5.8,6.7,74,0.00,CLR,,0.00,WeatherDisplay:10.37,2013-07-23 09:46:00,
2013-07-23 04:51:00,79.9,70.8,29.94,SSW,203,6.9,6.9,74,0.00,CLR,,0.00,WeatherDisplay:10.37,2013-07-23 09:51:00,
2013-07-23 04:57:00,79.9,70.8,29.91,SSE,159,5.8,5.8,74,0.00,CLR,,0.00,WeatherDisplay:10.37,2013-07-23 09:57:00,
2013-07-23 05:01:00,79.9,71.2,29.91,SSE,147,8.1,8.1,75,0.00,CLR,,0.00,WeatherDisplay:10.37,2013-07-23 10:01:00,
2013-07-23 05:07:00,79.7,71.1,29.91,SSW,200,5.8,5.8,75,0.00,CLR,,0.00,WeatherDisplay:10.37,2013-07-23 10:07:00,
2013-07-23 05:12:00,79.7,71.5,29.94,WSW,249,5.8,5.8,76,0.00,CLR,,0.00,WeatherDisplay:10.37,2013-07-23 10:12:00,
2013-07-23 05:17:00,79.5,71.3,29.94,SW,223,8.1,8.1,76,0.00,CLR,,0.00,WeatherDisplay:10.37,2013-07-23 10:17:00,
2013-07-23 05:22:00,79.5,71.3,29.94,SSW,210,8.1,8.1,76,0.00,CLR,,0.00,WeatherDisplay:10.37,2013-07-23 10:22:00,
2013-07-23 05:27:00,79.3,71.5,29.94,SSW,208,8.1,8.1,77,0.00,CLR,,0.00,WeatherDisplay:10.37,2013-07-23 10:27:00,
2013-07-23 05:32:00,79.3,71.5,29.94,WSW,256,8.1,8.1,77,0.00,CLR,,0.00,WeatherDisplay:10.37,2013-07-23 10:32:00,
2013-07-23 05:37:00,79.3,71.9,29.94,SW,220,8.1,8.1,78,0.00,CLR,,0.00,WeatherDisplay:10.37,2013-07-23 10:37:00,
2013-07-23 05:42:00,79.2,71.7,29.94,SSW,196,5.8,5.8,78,0.00,CLR,,0.00,WeatherDisplay:10.37,2013-07-23 10:42:00,
2013-07-23 05:47:00,79.2,71.7,29.94,SSW,194,3.5,3.5,78,0.00,CLR,,0.00,WeatherDisplay:10.37,2013-07-23 10:47:00,
2013-07-23 05:52:00,79.0,71.9,29.94,SSW,195,5.8,5.8,79,0.00,CLR,,0.00,WeatherDisplay:10.37,2013-07-23 10:52:00,
2013-07-23 05:57:00,79.0,71.9,29.94,SSW,196,5.8,5.8,79,0.00,CLR,,0.00,WeatherDisplay:10.37,2013-07-23 10:57:00,
2013-07-23 06:02:00,79.0,71.9,29.94,SW,220,8.1,8.1,79,0.00,CLR,,0.00,WeatherDisplay:10.37,2013-07-23 11:02:00,
2013-07-23 06:07:00,79.0,71.9,29.94,SW,218,5.8,5.8,79,0.00,CLR,,0.00,WeatherDisplay:10.37,2013-07-23 11:07:00,
2013-07-23 06:12:00,78.8,72.1,29.94,SW,226,9.2,9.2,80,0.00,CLR,,0.00,WeatherDisplay:10.37,2013-07-23 11:12:00,
2013-07-23 06:17:00,78.8,72.1,29.94,SW,223,8.1,8.1,80,0.00,CLR,,0.00,WeatherDisplay:10.37,2013-07-23 11:17:00,
2013-07-23 06:22:00,78.6,72.3,29.94,WSW,247,6.3,6.3,81,0.00,CLR,,0.00,WeatherDisplay:10.37,2013-07-23 11:22:00,
2013-07-23 06:27:00,78.6,72.3,29.94,SSW,207,5.8,5.8,81,0.00,CLR,,0.00,WeatherDisplay:10.37,2013-07-23 11:27:00,
2013-07-23 06:32:00,78.6,72.7,29.94,SW,215,8.1,8.1,82,0.00,CLR,,0.00,WeatherDisplay:10.37,2013-07-23 11:32:00,
2013-07-23 06:37:00,78.6,72.7,29.94,SW,216,3.6,3.6,82,0.00,CLR,,0.00,WeatherDisplay:10.37,2013-07-23 11:37:00,
2013-07-23 06:42:00,78.6,72.7,29.94,SSW,207,5.8,5.8,82,0.00,CLR,,0.00,WeatherDisplay:10.37,2013-07-23 11:42:00,
2013-07-23 06:47:00,78.6,73.0,29.94,SSW,199,9.2,9.2,83,0.00,CLR,,0.00,WeatherDisplay:10.37,2013-07-23 11:47:00,
2013-07-23 06:52:00,78.6,73.0,29.94,SSW,205,5.8,5.8,83,0.00,CLR,,0.00,WeatherDisplay:10.37,2013-07-23 11:52:00,
2013-07-23 06:57:00,78.6,73.0,29.94,SSW,194,3.5,4.0,83,0.00,CLR,,0.00,WeatherDisplay:10.37,2013-07-23 11:57:00,
2013-07-23 07:02:00,78.8,73.2,29.94,SSW,209,5.8,5.8,83,0.00,CLR,,0.00,WeatherDisplay:10.37,2013-07-23 12:02:00,
2013-07-23 07:07:00,78.8,73.2,29.94,SW,219,8.1,8.1,83,0.00,CLR,,0.00,WeatherDisplay:10.37,2013-07-23 12:07:00,
2013-07-23 07:12:00,79.0,73.4,29.97,SSE,159,5.8,5.8,83,0.00,CLR,,0.00,WeatherDisplay:10.37,2013-07-23 12:12:00,
2013-07-23 07:17:00,79.0,73.4,29.97,SSW,212,5.8,5.8,83,0.00,CLR,,0.00,WeatherDisplay:10.37,2013-07-23 12:17:00,
2013-07-23 07:22:00,79.0,73.4,29.97,WSW,237,5.8,5.8,83,0.00,CLR,,0.00,WeatherDisplay:10.37,2013-07-23 12:22:00,
2013-07-23 07:27:00,79.2,73.9,29.97,SW,224,5.8,5.8,84,0.00,CLR,,0.00,WeatherDisplay:10.37,2013-07-23 12:27:00,
2013-07-23 07:32:00,79.3,74.1,29.97,SW,222,5.8,5.8,84,0.00,CLR,,0.00,WeatherDisplay:10.37,2013-07-23 12:32:00,
2013-07-23 07:37:00,79.3,74.1,29.97,WSW,237,5.8,5.8,84,0.00,CLR,,0.00,WeatherDisplay:10.37,2013-07-23 12:37:00,
2013-07-23 07:42:00,79.5,74.3,29.97,WSW,239,5.8,5.8,84,0.00,CLR,,0.00,WeatherDisplay:10.37,2013-07-23 12:42:00,
2013-07-23 07:47:00,79.7,74.4,29.97,WSW,250,4.6,4.6,84,0.00,CLR,,0.00,WeatherDisplay:10.37,2013-07-23 12:47:00,
2013-07-23 07:52:00,80.1,74.8,29.97,SW,228,5.8,5.8,84,0.00,CLR,,0.00,WeatherDisplay:10.37,2013-07-23 12:52:00,
2013-07-23 07:57:00,80.2,74.6,29.97,SW,214,5.8,5.8,83,0.00,CLR,,0.00,WeatherDisplay:10.37,2013-07-23 12:57:00,
2013-07-23 08:02:00,80.4,74.8,29.97,South,174,5.8,5.8,83,0.00,CLR,,0.00,WeatherDisplay:10.37,2013-07-23 13:02:00,
2013-07-23 08:07:00,80.6,74.6,29.97,South,185,5.8,5.8,82,0.00,CLR,,0.00,WeatherDisplay:10.37,2013-07-23 13:07:00,
2013-07-23 08:12:00,80.8,74.8,29.97,SSW,201,5.8,5.8,82,0.00,CLR,,0.00,WeatherDisplay:10.37,2013-07-23 13:12:00,
2013-07-23 08:17:00,81.1,75.1,29.97,SSW,199,5.8,5.8,82,0.00,CLR,,0.00,WeatherDisplay:10.37,2013-07-23 13:17:00,
2013-07-23 08:22:00,81.3,74.9,29.97,SSW,192,5.8,5.8,81,0.00,CLR,,0.00,WeatherDisplay:10.37,2013-07-23 13:22:00,
2013-07-23 08:27:00,81.7,75.3,29.97,WSW,256,5.8,5.8,81,0.00,CLR,,0.00,WeatherDisplay:10.37,2013-07-23 13:27:00,
2013-07-23 08:32:00,82.0,75.6,29.97,WSW,245,5.8,5.8,81,0.00,CLR,,0.00,WeatherDisplay:10.37,2013-07-23 13:32:00,
2013-07-23 08:37:00,82.6,75.8,29.97,SW,234,6.3,6.3,80,0.00,CLR,,0.00,WeatherDisplay:10.37,2013-07-23 13:37:00,
2013-07-23 08:42:00,82.8,75.6,29.97,WSW,255,7.6,7.6,79,0.00,CLR,,0.00,WeatherDisplay:10.37,2013-07-23 13:42:00,
2013-07-23 08:47:00,82.9,75.4,29.97,SSW,206,5.8,5.8,78,0.00,CLR,,0.00,WeatherDisplay:10.37,2013-07-23 13:47:00,
2013-07-23 08:52:00,82.9,75.4,29.97,SW,220,6.9,6.9,78,0.00,CLR,,0.00,WeatherDisplay:10.37,2013-07-23 13:52:00,
2013-07-23 08:57:00,83.1,75.5,30.00,SW,234,8.1,8.1,78,0.00,CLR,,0.00,WeatherDisplay:10.37,2013-07-23 13:57:00,
2013-07-23 09:02:00,83.5,75.5,30.00,SSW,212,6.9,6.9,77,0.00,CLR,,0.00,WeatherDisplay:10.37,2013-07-23 14:02:00,
2013-07-23 09:07:00,83.5,75.5,30.00,SSW,199,9.2,9.2,77,0.00,CLR,,0.00,WeatherDisplay:10.37,2013-07-23 14:07:00,
2013-07-23 09:12:00,84.0,75.6,30.00,WSW,244,10.4,10.4,76,0.00,CLR,,0.00,WeatherDisplay:10.37,2013-07-23 14:12:00,
2013-07-23 09:17:00,84.0,75.6,30.00,SSW,194,10.4,10.4,76,0.00,CLR,,0.00,WeatherDisplay:10.37,2013-07-23 14:17:00,
2013-07-23 09:22:00,84.6,75.4,30.00,SSW,194,8.1,8.1,74,0.00,CLR,,0.00,WeatherDisplay:10.37,2013-07-23 14:22:00,
2013-07-23 09:27:00,84.6,75.4,30.00,SW,227,8.1,8.1,74,0.00,CLR,,0.00,WeatherDisplay:10.37,2013-07-23 14:27:00,
2013-07-23 09:32:00,84.7,75.5,30.00,WSW,247,6.9,6.9,74,0.00,CLR,,0.00,WeatherDisplay:10.37,2013-07-23 14:32:00,
2013-07-23 09:37:00,84.9,75.3,30.00,WSW,240,8.1,8.1,73,0.00,CLR,,0.00,WeatherDisplay:10.37,2013-07-23 14:37:00,
2013-07-23 09:42:00,85.1,75.5,30.00,SSW,208,10.4,10.4,73,0.00,CLR,,0.00,WeatherDisplay:10.37,2013-07-23 14:42:00,
2013-07-23 09:47:00,85.5,75.8,30.00,SSW,195,8.1,8.1,73,0.00,CLR,,0.00,WeatherDisplay:10.37,2013-07-23 14:47:00,
2013-07-23 09:52:00,85.8,75.7,30.00,SSW,208,8.1,8.1,72,0.00,CLR,,0.00,WeatherDisplay:10.37,2013-07-23 14:52:00,
2013-07-23 09:57:00,86.0,75.5,30.00,SSE,162,8.1,8.1,71,0.00,CLR,,0.00,WeatherDisplay:10.37,2013-07-23 14:57:00,
2013-07-23 10:02:00,86.2,75.7,30.00,SW,234,5.8,5.8,71,0.00,CLR,,0.00,WeatherDisplay:10.37,2013-07-23 15:02:00,
2013-07-23 10:07:00,86.5,76.0,30.00,SSW,210,5.8,6.3,71,0.00,CLR,,0.00,WeatherDisplay:10.37,2013-07-23 15:07:00,
2013-07-23 10:12:00,86.9,75.9,30.00,SSW,204,5.8,5.8,70,0.00,CLR,,0.00,WeatherDisplay:10.37,2013-07-23 15:12:00,
2013-07-23 10:17:00,87.1,75.7,30.00,SW,236,6.9,6.9,69,0.00,CLR,,0.00,WeatherDisplay:10.37,2013-07-23 15:17:00,
2013-07-23 10:22:00,87.1,75.7,30.00,SSW,208,5.8,5.8,69,0.00,CLR,,0.00,WeatherDisplay:10.37,2013-07-23 15:22:00,
2013-07-23 10:28:00,87.1,75.2,30.00,SSW,210,5.8,5.8,68,0.00,CLR,,0.00,WeatherDisplay:10.37,2013-07-23 15:28:00,
2013-07-23 10:33:00,87.1,75.2,30.00,SSW,213,8.1,8.1,68,0.00,CLR,,0.00,WeatherDisplay:10.37,2013-07-23 15:33:00,
2013-07-23 10:38:00,87.1,75.2,30.00,WSW,244,5.8,6.3,68,0.00,CLR,,0.00,WeatherDisplay:10.37,2013-07-23 15:38:00,
2013-07-23 10:43:00,87.3,75.8,30.00,SW,235,10.4,10.4,69,0.00,CLR,,0.00,WeatherDisplay:10.37,2013-07-23 15:43:00,
2013-07-23 10:48:00,87.4,75.6,30.00,West,267,8.1,8.1,68,0.00,CLR,,0.00,WeatherDisplay:10.37,2013-07-23 15:48:00,
2013-07-23 10:53:00,87.6,75.7,30.00,SSW,209,6.3,6.3,68,0.00,CLR,,0.00,WeatherDisplay:10.37,2013-07-23 15:53:00,
2013-07-23 10:58:00,87.8,75.5,30.00,SW,235,5.8,6.3,67,0.00,CLR,,0.00,WeatherDisplay:10.37,2013-07-23 15:58:00,
2013-07-23 11:03:00,88.0,75.6,30.00,SSE,149,8.1,8.1,67,0.00,CLR,,0.00,WeatherDisplay:10.37,2013-07-23 16:03:00,
2013-07-23 11:08:00,88.2,75.8,30.00,SW,220,9.2,9.2,67,0.00,CLR,,0.00,WeatherDisplay:10.37,2013-07-23 16:08:00,
2013-07-23 11:13:00,88.3,76.0,30.00,SSE,151,8.1,8.1,67,0.00,CLR,,0.00,WeatherDisplay:10.37,2013-07-23 16:13:00,
2013-07-23 11:18:00,88.7,75.9,30.00,South,179,10.4,10.4,66,0.00,CLR,,0.00,WeatherDisplay:10.37,2013-07-23 16:18:00,
2013-07-23 11:23:00,88.7,75.9,30.00,South,186,9.2,9.2,66,0.00,CLR,,0.00,WeatherDisplay:10.37,2013-07-23 16:23:00,
2013-07-23 11:28:00,88.7,75.9,29.97,SSW,210,8.1,8.1,66,0.00,CLR,,0.00,WeatherDisplay:10.37,2013-07-23 16:28:00,
2013-07-23 11:33:00,88.9,75.6,29.97,SW,224,5.8,5.8,65,0.00,CLR,,0.00,WeatherDisplay:10.37,2013-07-23 16:33:00,
2013-07-23 11:38:00,89.1,75.8,29.97,South,187,5.8,5.8,65,0.00,CLR,,0.00,WeatherDisplay:10.37,2013-07-23 16:38:00,
2013-07-23 11:43:00,89.2,75.9,29.97,South,183,7.6,7.6,65,0.00,CLR,,0.00,WeatherDisplay:10.37,2013-07-23 16:43:00,
2013-07-23 11:48:00,89.2,75.9,29.97,WSW,240,9.2,9.2,65,0.00,CLR,,0.00,WeatherDisplay:10.37,2013-07-23 16:48:00,
2013-07-23 11:53:00,89.4,76.1,29.97,WSW,244,10.4,10.4,65,0.00,CLR,,0.00,WeatherDisplay:10.37,2013-07-23 16:53:00,
2013-07-23 11:58:00,89.6,76.3,29.97,WNW,282,6.3,6.3,65,0.00,CLR,,0.00,WeatherDisplay:10.37,2013-07-23 16:58:00,
2013-07-23 12:03:00,89.8,76.0,29.97,South,175,8.1,8.1,64,0.00,CLR,,0.00,WeatherDisplay:10.37,2013-07-23 17:03:00,
2013-07-23 12:08:00,90.0,76.1,29.97,SW,214,11.5,11.5,64,0.00,CLR,,0.00,WeatherDisplay:10.37,2013-07-23 17:08:00,
2013-07-23 12:13:00,90.1,75.8,29.97,South,174,10.4,10.4,63,0.00,CLR,,0.00,WeatherDisplay:10.37,2013-07-23 17:13:00,
2013-07-23 12:18:00,90.3,75.5,29.97,SSE,158,9.2,9.2,62,0.00,CLR,,0.00,WeatherDisplay:10.37,2013-07-23 17:18:00,
2013-07-23 12:23:00,90.5,75.7,29.97,West,270,8.1,8.1,62,0.00,CLR,,0.00,WeatherDisplay:10.37,2013-07-23 17:23:00,
2013-07-23 12:28:00,90.7,75.4,29.97,SSW,196,8.1,8.1,61,0.00,CLR,,0.00,WeatherDisplay:10.37,2013-07-23 17:28:00,
2013-07-23 12:33:00,90.7,75.9,29.97,WSW,247,8.1,8.1,62,0.00,CLR,,0.00,WeatherDisplay:10.37,2013-07-23 17:33:00,
2013-07-23 12:38:00,91.0,75.7,29.97,WSW,253,8.1,8.1,61,0.00,CLR,,0.00,WeatherDisplay:10.37,2013-07-23 17:38:00,
2013-07-23 12:43:00,91.2,75.9,29.97,SSE,161,9.2,9.2,61,0.00,CLR,,0.00,WeatherDisplay:10.37,2013-07-23 17:43:00,
2013-07-23 12:49:00,91.2,75.9,29.97,SSW,205,8.1,8.1,61,0.00,CLR,,0.00,WeatherDisplay:10.37,2013-07-23 17:49:00,
2013-07-23 12:54:00,91.6,76.2,29.97,South,189,8.1,8.1,61,0.00,CLR,,0.00,WeatherDisplay:10.37,2013-07-23 17:54:00,
2013-07-23 12:59:00,91.0,75.7,29.97,SE,144,5.8,5.8,61,0.00,CLR,,0.00,WeatherDisplay:10.37,2013-07-23 17:59:00,
2013-07-23 13:04:00,91.8,75.9,29.97,SW,223,6.0,6.0,60,0.00,CLR,,0.00,WeatherDisplay:10.37,2013-07-23 18:04:00,
2013-07-23 13:10:00,92.1,76.2,29.97,WSW,249,5.8,5.8,60,0.00,CLR,,0.00,WeatherDisplay:10.37,2013-07-23 18:10:00,
2013-07-23 13:16:00,92.1,75.7,29.97,SW,219,8.1,8.1,59,0.00,CLR,,0.00,WeatherDisplay:10.37,2013-07-23 18:16:00,
2013-07-23 13:21:00,92.3,75.9,29.97,South,187,8.1,8.1,59,0.00,CLR,,0.00,WeatherDisplay:10.37,2013-07-23 18:21:00,
2013-07-23 13:27:00,92.7,76.2,29.94,SW,233,7.6,7.6,59,0.00,CLR,,0.00,WeatherDisplay:10.37,2013-07-23 18:27:00,
2013-07-23 13:32:00,92.7,76.2,29.94,SSW,203,10.9,10.9,59,0.00,CLR,,0.00,WeatherDisplay:10.37,2013-07-23 18:32:00,
2013-07-23 13:37:00,93.0,76.6,29.94,South,190,8.1,8.1,59,0.00,CLR,,0.00,WeatherDisplay:10.37,2013-07-23 18:37:00,
2013-07-23 13:42:00,93.2,75.2,29.94,WSW,258,5.8,5.8,56,0.00,CLR,,0.00,WeatherDisplay:10.37,2013-07-23 18:42:00,
2013-07-23 13:47:00,93.4,75.9,29.94,WSW,244,8.1,8.1,57,0.00,CLR,,0.00,WeatherDisplay:10.37,2013-07-23 18:47:00,
2013-07-23 13:53:00,93.6,75.0,29.94,WSW,245,5.8,5.8,55,0.00,CLR,,0.00,WeatherDisplay:10.37,2013-07-23 18:53:00,
2013-07-23 13:59:00,93.4,75.3,29.94,SSW,204,10.4,10.4,56,0.00,CLR,,0.00,WeatherDisplay:10.37,2013-07-23 18:59:00,
2013-07-23 14:04:00,93.6,75.5,29.94,SSW,202,8.1,8.1,56,0.00,CLR,,0.00,WeatherDisplay:10.37,2013-07-23 19:04:00,
2013-07-23 14:09:00,93.7,75.7,29.94,SW,220,5.8,5.8,56,0.00,CLR,,0.00,WeatherDisplay:10.37,2013-07-23 19:09:00,
2013-07-23 14:14:00,93.9,75.3,29.94,SW,222,7.0,10.0,55,0.00,CLR,,0.00,WeatherDisplay:10.37,2013-07-23 19:14:00,
2013-07-23 14:19:00,93.9,75.3,29.94,SW,225,7.0,10.0,55,0.00,CLR,,0.00,WeatherDisplay:10.37,2013-07-23 19:19:00,
2013-07-23 14:25:00,94.1,75.5,29.94,South,185,8.1,8.1,55,0.00,CLR,,0.00,WeatherDisplay:10.37,2013-07-23 19:25:00,
2013-07-23 14:29:00,94.3,75.6,29.94,SW,228,6.0,11.0,55,0.00,CLR,,0.00,WeatherDisplay:10.37,2013-07-23 19:29:00,
2013-07-23 14:34:00,94.3,75.6,29.94,SW,231,7.0,10.0,55,0.00,CLR,,0.00,WeatherDisplay:10.37,2013-07-23 19:34:00,
2013-07-23 14:39:00,94.3,75.1,29.94,SW,219,7.0,10.0,54,0.00,CLR,,0.00,WeatherDisplay:10.37,2013-07-23 19:39:00,
2013-07-23 14:44:00,94.5,75.2,29.91,South,181,10.4,10.5,54,0.00,CLR,,0.00,WeatherDisplay:10.37,2013-07-23 19:44:00,
2013-07-23 14:49:00,94.5,74.1,29.91,SW,232,9.0,14.0,52,0.00,CLR,,0.00,WeatherDisplay:10.37,2013-07-23 19:49:00,
2013-07-23 14:54:00,94.5,74.7,29.91,SW,233,6.0,9.0,53,0.00,CLR,,0.00,WeatherDisplay:10.37,2013-07-23 19:54:00,
2013-07-23 14:59:00,94.8,74.4,29.91,SW,214,10.4,10.4,52,0.00,CLR,,0.00,WeatherDisplay:10.37,2013-07-23 19:59:00,
2013-07-23 15:04:00,95.0,74.6,29.91,SW,226,5.0,12.0,52,0.00,CLR,,0.00,WeatherDisplay:10.37,2013-07-23 20:04:00,
2013-07-23 15:09:00,95.2,74.2,29.91,SW,226,7.0,10.0,51,0.00,CLR,,0.00,WeatherDisplay:10.37,2013-07-23 20:09:00,
2013-07-23 15:15:00,95.2,74.2,29.91,West,265,8.1,8.1,51,0.00,CLR,,0.00,WeatherDisplay:10.37,2013-07-23 20:15:00,
2013-07-23 15:21:00,95.2,74.2,29.91,West,280,13.2,13.2,51,0.00,CLR,,0.00,WeatherDisplay:10.37,2013-07-23 20:21:00,
2013-07-23 15:26:00,95.0,74.0,29.91,WSW,238,9.2,9.2,51,0.00,CLR,,0.00,WeatherDisplay:10.37,2013-07-23 20:26:00,
2013-07-23 15:31:00,95.4,74.4,29.91,SW,232,9.2,9.2,51,0.00,CLR,,0.00,WeatherDisplay:10.37,2013-07-23 20:31:00,
2013-07-23 15:37:00,95.4,74.4,29.91,ESE,108,11.5,11.5,51,0.00,CLR,,0.00,WeatherDisplay:10.37,2013-07-23 20:37:00,
2013-07-23 15:42:00,95.7,74.1,29.91,SSE,151,10.4,10.4,50,0.00,CLR,,0.00,WeatherDisplay:10.37,2013-07-23 20:42:00,
2013-07-23 15:47:00,95.5,73.9,29.91,South,180,10.1,10.1,50,0.00,CLR,,0.00,WeatherDisplay:10.37,2013-07-23 20:47:00,
2013-07-23 15:52:00,95.7,73.5,29.91,SW,234,5.8,5.8,49,0.00,CLR,,0.00,WeatherDisplay:10.37,2013-07-23 20:52:00,
2013-07-23 15:57:00,95.9,74.3,29.88,WSW,249,5.8,5.8,50,0.00,CLR,,0.00,WeatherDisplay:10.37,2013-07-23 20:57:00,
2013-07-23 16:02:00,96.1,73.8,29.88,SSW,207,8.1,8.1,49,0.00,CLR,,0.00,WeatherDisplay:10.37,2013-07-23 21:02:00,
2013-07-23 16:08:00,96.3,73.4,29.88,SW,229,9.2,9.2,48,0.00,CLR,,0.00,WeatherDisplay:10.37,2013-07-23 21:08:00,
2013-07-23 16:13:00,96.3,72.8,29.88,West,266,8.1,8.1,47,0.00,CLR,,0.00,WeatherDisplay:10.37,2013-07-23 21:13:00,
2013-07-23 16:18:00,96.4,72.9,29.88,SSE,166,9.2,9.2,47,0.00,CLR,,0.00,WeatherDisplay:10.37,2013-07-23 21:18:00,
2013-07-23 16:23:00,96.8,73.9,29.88,WSW,237,8.1,8.1,48,0.00,CLR,,0.00,WeatherDisplay:10.37,2013-07-23 21:23:00,
2013-07-23 16:28:00,96.8,72.6,29.88,SSW,195,8.1,8.1,46,0.00,CLR,,0.00,WeatherDisplay:10.37,2013-07-23 21:28:00,
2013-07-23 16:34:00,97.0,72.1,29.88,WSW,249,7.6,7.6,45,0.00,CLR,,0.00,WeatherDisplay:10.37,2013-07-23 21:34:00,
2013-07-23 16:39:00,97.0,72.1,29.88,SSW,212,11.5,11.5,45,0.00,CLR,,0.00,WeatherDisplay:10.37,2013-07-23 21:39:00,
2013-07-23 16:44:00,97.2,72.3,29.88,WSW,239,11.5,11.5,45,0.00,CLR,,0.00,WeatherDisplay:10.37,2013-07-23 21:44:00,
2013-07-23 16:49:00,96.8,71.3,29.88,SW,220,7.0,11.0,44,0.00,CLR,,0.00,WeatherDisplay:10.37,2013-07-23 21:49:00,
2013-07-23 16:54:00,96.4,71.6,29.88,SW,225,8.0,12.0,45,0.00,CLR,,0.00,WeatherDisplay:10.37,2013-07-23 21:54:00,
2013-07-23 17:00:00,95.9,70.5,29.88,WSW,254,6.9,6.9,44,0.00,CLR,,0.00,WeatherDisplay:10.37,2013-07-23 22:00:00,
2013-07-23 17:05:00,95.9,70.5,29.88,WSW,249,9.2,9.2,44,0.00,CLR,,0.00,WeatherDisplay:10.37,2013-07-23 22:05:00,
2013-07-23 17:10:00,95.5,70.8,29.88,SSW,207,9.2,9.2,45,0.00,CLR,,0.00,WeatherDisplay:10.37,2013-07-23 22:10:00,
2013-07-23 17:15:00,95.4,70.0,29.88,SW,220,6.9,6.9,44,0.00,CLR,,0.00,WeatherDisplay:10.37,2013-07-23 22:15:00,
2013-07-23 17:20:00,95.2,69.8,29.88,SW,236,5.8,5.8,44,0.00,CLR,,0.00,WeatherDisplay:10.37,2013-07-23 22:20:00,
2013-07-23 17:26:00,94.8,70.2,29.88,West,259,8.1,8.1,45,0.00,CLR,,0.00,WeatherDisplay:10.37,2013-07-23 22:26:00,
2013-07-23 17:31:00,94.6,70.0,29.88,WSW,256,7.6,7.6,45,0.00,CLR,,0.00,WeatherDisplay:10.37,2013-07-23 22:31:00,
2013-07-23 17:38:00,94.5,69.8,29.88,WSW,252,8.1,8.1,45,0.00,CLR,,0.00,WeatherDisplay:10.37,2013-07-23 22:38:00,
2013-07-23 17:43:00,94.3,69.0,29.88,SSE,154,8.1,8.1,44,0.00,CLR,,0.00,WeatherDisplay:10.37,2013-07-23 22:43:00,
2013-07-23 17:48:00,94.3,69.7,29.88,SSW,202,8.1,8.1,45,0.00,CLR,,0.00,WeatherDisplay:10.37,2013-07-23 22:48:00,
2013-07-23 17:53:00,94.3,69.0,29.88,WSW,246,8.1,8.1,44,0.00,CLR,,0.00,WeatherDisplay:10.37,2013-07-23 22:53:00,
2013-07-23 17:59:00,94.6,68.7,29.85,South,177,8.1,8.1,43,0.00,CLR,,0.00,WeatherDisplay:10.37,2013-07-23 22:59:00,
2013-07-23 18:04:00,94.8,68.1,29.85,SSW,206,6.0,10.0,42,0.00,CLR,,0.00,WeatherDisplay:10.37,2013-07-23 23:04:00,
2013-07-23 18:09:00,95.4,69.3,29.85,SW,219,7.0,10.0,43,0.00,CLR,,0.00,WeatherDisplay:10.37,2013-07-23 23:09:00,
2013-07-23 18:14:00,95.7,69.0,29.85,SW,217,7.0,9.0,42,0.00,CLR,,0.00,WeatherDisplay:10.37,2013-07-23 23:14:00,
2013-07-23 18:19:00,96.3,68.7,29.85,SW,217,8.0,12.0,41,0.00,CLR,,0.00,WeatherDisplay:10.37,2013-07-23 23:19:00,
2013-07-23 18:24:00,96.4,68.9,29.85,SW,223,8.0,13.0,41,0.00,CLR,,0.00,WeatherDisplay:10.37,2013-07-23 23:24:00,
2013-07-23 18:29:00,96.4,68.9,29.82,SW,222,6.0,12.0,41,0.00,CLR,,0.00,WeatherDisplay:10.37,2013-07-23 23:29:00,
2013-07-23 18:34:00,96.6,68.3,29.82,West,269,9.2,9.2,40,0.00,CLR,,0.00,WeatherDisplay:10.37,2013-07-23 23:34:00,
2013-07-23 18:39:00,96.8,67.0,29.82,WSW,243,10.4,10.4,38,0.00,CLR,,0.00,WeatherDisplay:10.37,2013-07-23 23:39:00,
2013-07-23 18:45:00,96.6,67.6,29.82,WSW,246,11.5,11.5,39,0.00,CLR,,0.00,WeatherDisplay:10.37,2013-07-23 23:45:00,
2013-07-23 18:50:00,96.8,67.8,29.82,SSW,205,5.8,6.7,39,0.00,CLR,,0.00,WeatherDisplay:10.37,2013-07-23 23:50:00,
2013-07-23 18:56:00,96.8,67.0,29.82,West,266,8.1,8.1,38,0.00,CLR,,0.00,WeatherDisplay:10.37,2013-07-23 23:56:00,
2013-07-23 19:01:00,96.6,66.1,29.82,SSE,167,10.4,10.4,37,0.00,CLR,,0.00,WeatherDisplay:10.37,2013-07-24 00:01:00,
2013-07-23 19:07:00,96.4,66.7,29.82,WSW,258,8.1,8.1,38,0.00,CLR,,0.00,WeatherDisplay:10.37,2013-07-24 00:07:00,
2013-07-23 19:12:00,96.4,65.9,29.82,SE,138,11.5,11.5,37,0.00,CLR,,0.00,WeatherDisplay:10.37,2013-07-24 00:12:00,
2013-07-23 19:17:00,96.1,65.6,29.82,SW,224,10.4,10.4,37,0.00,CLR,,0.00,WeatherDisplay:10.37,2013-07-24 00:17:00,
2013-07-23 19:22:00,95.7,65.3,29.82,SW,227,8.1,8.1,37,0.00,CLR,,0.00,WeatherDisplay:10.37,2013-07-24 00:22:00,
2013-07-23 19:27:00,95.4,64.2,29.82,SW,224,9.2,9.2,36,0.00,CLR,,0.00,WeatherDisplay:10.37,2013-07-24 00:27:00,
2013-07-23 19:33:00,95.0,63.9,29.82,South,191,8.1,8.1,36,0.00,CLR,,0.00,WeatherDisplay:10.37,2013-07-24 00:33:00,
2013-07-23 19:38:00,94.5,63.4,29.82,SW,220,8.1,8.1,36,0.00,CLR,,0.00,WeatherDisplay:10.37,2013-07-24 00:38:00,
2013-07-23 19:43:00,94.1,63.1,29.85,South,174,3.5,3.6,36,0.00,CLR,,0.00,WeatherDisplay:10.37,2013-07-24 00:43:00,
2013-07-23 19:48:00,93.7,62.0,29.85,WNW,302,8.1,8.1,35,0.00,CLR,,0.00,WeatherDisplay:10.37,2013-07-24 00:48:00,
2013-07-23 19:54:00,93.6,61.0,29.85,SW,216,5.8,5.8,34,0.00,CLR,,0.00,WeatherDisplay:10.37,2013-07-24 00:54:00,
2013-07-23 19:59:00,93.2,60.7,29.85,WSW,247,4.6,4.6,34,0.00,CLR,,0.00,WeatherDisplay:10.37,2013-07-24 00:59:00,
2013-07-23 20:04:00,92.8,59.5,29.85,East,90,8.1,8.1,33,0.00,CLR,,0.00,WeatherDisplay:10.37,2013-07-24 01:04:00,
2013-07-23 20:09:00,92.7,59.4,29.85,SSW,203,5.0,8.0,33,0.00,CLR,,0.00,WeatherDisplay:10.37,2013-07-24 01:09:00,
2013-07-23 20:14:00,92.3,59.0,29.85,SSW,206,5.0,6.0,33,0.00,CLR,,0.00,WeatherDisplay:10.37,2013-07-24 01:14:00,
2013-07-23 20:19:00,91.9,57.9,29.85,South,185,5.8,5.8,32,0.00,CLR,,0.00,WeatherDisplay:10.37,2013-07-24 01:19:00,
2013-07-23 20:24:00,91.8,56.8,29.85,SSW,205,5.0,8.0,31,0.00,CLR,,0.00,WeatherDisplay:10.37,2013-07-24 01:24:00,
2013-07-23 20:30:00,91.4,56.5,29.85,WSW,245,8.1,8.1,31,0.00,CLR,,0.00,WeatherDisplay:10.37,2013-07-24 01:30:00,
2013-07-23 20:36:00,91.0,57.1,29.85,South,173,5.8,5.8,32,0.00,CLR,,0.00,WeatherDisplay:10.37,2013-07-24 01:36:00,
2013-07-23 20:41:00,90.7,57.6,29.85,SSE,149,6.3,6.3,33,0.00,CLR,,0.00,WeatherDisplay:10.37,2013-07-24 01:41:00,
2013-07-23 20:46:00,90.5,57.5,29.85,SSW,203,8.1,8.1,33,0.00,CLR,,0.00,WeatherDisplay:10.37,2013-07-24 01:46:00,
2013-07-23 20:51:00,90.1,57.2,29.85,SW,236,5.8,5.8,33,0.00,CLR,,0.00,WeatherDisplay:10.37,2013-07-24 01:51:00,
2013-07-23 20:57:00,90.0,57.8,29.85,SE,142,4.6,4.6,34,0.00,CLR,,0.00,WeatherDisplay:10.37,2013-07-24 01:57:00,
2013-07-23 21:02:00,89.6,58.3,29.85,South,176,5.8,5.8,35,0.00,CLR,,0.00,WeatherDisplay:10.37,2013-07-24 02:02:00,
2013-07-23 21:07:00,89.2,58.8,29.85,WSW,250,3.5,3.6,36,0.00,CLR,,0.00,WeatherDisplay:10.37,2013-07-24 02:07:00,
2013-07-23 21:13:00,88.9,58.5,29.85,SW,214,3.5,3.5,36,0.00,CLR,,0.00,WeatherDisplay:10.37,2013-07-24 02:13:00,
2013-07-23 21:18:00,88.5,58.9,29.85,SSW,199,3.5,3.5,37,0.00,CLR,,0.00,WeatherDisplay:10.37,2013-07-24 02:18:00,
2013-07-23 21:24:00,88.3,58.8,29.85,SW,223,4.0,4.0,37,0.00,CLR,,0.00,WeatherDisplay:10.37,2013-07-24 02:24:00,
2013-07-23 21:29:00,88.2,59.4,29.85,SSW,199,5.8,5.8,38,0.00,CLR,,0.00,WeatherDisplay:10.37,2013-07-24 02:29:00,
2013-07-23 21:35:00,88.0,59.2,29.85,SSW,200,3.5,3.5,38,0.00,CLR,,0.00,WeatherDisplay:10.37,2013-07-24 02:35:00,
2013-07-23 21:40:00,87.6,59.6,29.85,SSW,205,3.5,3.6,39,0.00,CLR,,0.00,WeatherDisplay:10.37,2013-07-24 02:40:00,
2013-07-23 21:45:00,87.4,59.4,29.85,South,186,3.5,3.5,39,0.00,CLR,,0.00,WeatherDisplay:10.37,2013-07-24 02:45:00,
2013-07-23 21:51:00,87.1,59.1,29.85,SSW,197,3.5,3.5,39,0.00,CLR,,0.00,WeatherDisplay:10.37,2013-07-24 02:51:00,
2013-07-23 21:56:00,87.1,59.1,29.85,SW,229,3.5,3.5,39,0.00,CLR,,0.00,WeatherDisplay:10.37,2013-07-24 02:56:00,
2013-07-23 22:01:00,86.7,59.5,29.85,WSW,243,3.5,3.5,40,0.00,CLR,,0.00,WeatherDisplay:10.37,2013-07-24 03:01:00,
2013-07-23 22:06:00,86.5,59.3,29.85,WSW,251,3.5,3.5,40,0.00,CLR,,0.00,WeatherDisplay:10.37,2013-07-24 03:06:00,
2013-07-23 22:11:00,86.4,59.2,29.85,West,259,3.5,3.5,40,0.00,CLR,,0.00,WeatherDisplay:10.37,2013-07-24 03:11:00,
2013-07-23 22:18:00,86.0,59.6,29.88,WSW,249,0.0,0.0,41,0.00,CLR,,0.00,WeatherDisplay:10.37,2013-07-24 03:18:00,
2013-07-23 22:23:00,85.6,59.2,29.88,WSW,249,0.0,0.0,41,0.00,CLR,,0.00,WeatherDisplay:10.37,2013-07-24 03:23:00,
2013-07-23 22:29:00,85.3,59.6,29.88,WSW,248,0.0,0.0,42,0.00,CLR,,0.00,WeatherDisplay:10.37,2013-07-24 03:29:00,
2013-07-23 22:34:00,85.1,60.1,29.88,SSE,149,0.0,0.0,43,0.00,CLR,,0.00,WeatherDisplay:10.37,2013-07-24 03:34:00,
2013-07-23 22:39:00,82.4,66.1,29.88,SSE,159,0.0,0.0,58,0.00,CLR,,0.00,WeatherDisplay:10.37,2013-07-24 03:39:00,
2013-07-23 22:44:00,79.9,67.6,29.88,SSW,203,0.0,3.0,66,0.00,CLR,,0.00,WeatherDisplay:10.37,2013-07-24 03:44:00,
2013-07-23 22:50:00,78.9,66.6,29.88,SW,232,3.0,4.0,66,0.00,CLR,,0.00,WeatherDisplay:10.37,2013-07-24 03:50:00,
2013-07-23 22:55:00,78.1,66.7,29.88,SW,234,3.5,3.5,68,0.00,CLR,,0.00,WeatherDisplay:10.37,2013-07-24 03:55:00,
2013-07-23 23:00:00,77.4,67.2,29.88,WSW,252,5.8,5.8,71,0.00,CLR,,0.00,WeatherDisplay:10.37,2013-07-24 04:00:00,
2013-07-23 23:01:00,77.4,67.2,29.88,WSW,238,5.8,5.8,71,0.00,CLR,,0.00,WeatherDisplay:10.37,2013-07-24 04:01:00,
2013-07-23 23:02:00,77.2,67.5,29.88,WSW,249,3.5,3.6,72,0.00,CLR,,0.00,WeatherDisplay:10.37,2013-07-24 04:02:00,
2013-07-23 23:07:00,77.0,66.9,29.88,WSW,248,3.5,4.0,71,0.00,CLR,,0.00,WeatherDisplay:10.37,2013-07-24 04:07:00,
2013-07-23 23:12:00,76.6,67.3,29.88,WSW,255,4.6,4.6,73,0.00,CLR,,0.00,WeatherDisplay:10.37,2013-07-24 04:12:00,
2013-07-23 23:17:00,76.5,67.6,29.88,SE,136,2.3,0.0,74,0.00,CLR,,0.00,WeatherDisplay:10.37,2013-07-24 04:17:00,
2013-07-23 23:22:00,76.3,67.4,29.88,SSE,154,0.0,0.0,74,0.00,CLR,,0.00,WeatherDisplay:10.37,2013-07-24 04:22:00,
2013-07-23 23:28:00,76.1,67.6,29.88,SE,125,0.0,0.0,75,0.00,CLR,,0.00,WeatherDisplay:10.37,2013-07-24 04:28:00,
2013-07-23 23:33:00,76.1,68.0,29.88,ESE,122,0.0,0.0,76,0.00,CLR,,0.00,WeatherDisplay:10.37,2013-07-24 04:33:00,
2013-07-23 23:38:00,75.9,68.2,29.88,SE,127,0.0,0.0,77,0.00,CLR,,0.00,WeatherDisplay:10.37,2013-07-24 04:38:00,
2013-07-23 23:43:00,75.9,68.2,29.88,SE,127,0.0,0.0,77,0.00,CLR,,0.00,WeatherDisplay:10.37,2013-07-24 04:43:00,
2013-07-23 23:48:00,75.9,68.6,29.88,SE,127,0.0,0.0,78,0.00,CLR,,0.00,WeatherDisplay:10.37,2013-07-24 04:48:00,
2013-07-23 23:53:00,75.9,68.6,29.88,SE,127,0.0,0.0,78,0.00,CLR,,0.00,WeatherDisplay:10.37,2013-07-24 04:53:00,
2013-07-23 23:58:00,75.9,68.6,29.88,SSW,195,0.0,0.0,78,0.00,CLR,,0.00,WeatherDisplay:10.37,2013-07-24 04:58:00,